Tracking 31027 objects as of 19-Jul-2025
HD Live streaming from Space Station
objects crossing your sky now

OPS 4682 DEB

Track OPS 4682 DEB now!
10-day predictions


NORAD ID: 38449
Int'l Code: 1965-027FE
Perigee: 1,265.3 km
Apogee: 1,311.3 km
Inclination: 90.2 °
Period: 111.2 minutes
Semi major axis: 7659 km
RCS: 0.0094 m2 (small)
Launch date: April 3, 1965
Source: United States (US)
Launch site: AIR FORCE WESTERN TEST RANGE (AFWTR)

Note: This is SATELLITE DEBRIS
Your satellite tracking list
DEWASAT-2
Track 1 satellite(s)




NASA's NSSDC Master Catalog

Two Line Element Set (TLE):
1 38449U 65027FE  25199.70246966 -.00000064  00000-0 -25142-3 0  9993
2 38449  90.2421   3.5118 0030046 325.9927  33.9266 12.95148162 49232
Source of the keplerian elements: AFSPC